Regional Weather Roundup
Issued by NWS Spokane, WA

Home | Current Version | Previous Version | Text Only | Print | Product List | Glossary On
Versions: 1 2 3 4 5 6 7 8 9 10 11 12 13 14 15 16 17 18 19 20 21 22 23 24 25 26 27 28 29 30 31 32 33 34 35 36 37 38 39 40 41 42 43 44 45 46 47 48 49 50
000
NZUS01 KOTX 242010
RWROTX
EASTERN WASHINGTON/NORTHERN IDAHO ROUNDUP
NATIONAL WEATHER SERVICE, SPOKANE WA
100 PM PDT SUN JUL 24 2016

Note: "fair" indicated few or no clouds below 12,000 feet with no
significant weather and/or obstructions to visibility.

...NORTHEAST WASHINGTON AND NORTHERN IDAHO PANHANDLE...

CITY           SKY/WX    TMP DP  RH WIND       PRES   REMARKS
SPOKANE INTL   MOSUNNY   81  42  25 VRB5      30.10F
SPOKANE DOWNTO SUNNY     82  48  30 SW6       30.08F
COEUR D ALENE  SUNNY     81  50  34 CALM      30.07F
DEER PARK      SUNNY     80  43  26 CALM      30.10F
SANDPOINT      SUNNY     73  54  49 E8        30.09F
BONNERS FERRY    N/A     77  52  41 E5        30.08F

...SOUTHEAST WASHINGTON AND SOUTHERN IDAHO PANHANDLE...

CITY           SKY/WX    TMP DP  RH WIND       PRES   REMARKS
WALLA WALLA    SUNNY     84  41  21 CALM      30.03F
PULLMAN/MOSCOW SUNNY     81  43  26 VRB3      30.11F
LEWISTON       SUNNY     87  41  19 VRB5      30.04F
LOWELL           N/A     86  51  29 S3        30.01F

...COLUMBIA BASIN...

CITY           SKY/WX    TMP DP  RH WIND       PRES   REMARKS
EPHRATA        SUNNY     85  45  24 VRB6      30.04F
MOSES LAKE     SUNNY     85  43  22 SW9       30.05F
TRI CITIES     SUNNY     84  50  30 CALM      30.02F
HERMISTON      SUNNY     86  46  24 NW6       30.02F
PENDLETON      SUNNY     84  44  24 W8        30.04F

...EAST SLOPES CASCADES...

CITY           SKY/WX    TMP DP  RH WIND       PRES   REMARKS
THE DALLES     SUNNY     86  45  23 CALM      29.99F
YAKIMA         SUNNY     87  43  21 VRB6      30.05F
ELLENSBURG     SUNNY     86  46  24 VRB3      30.07F
STAMPEDE PASS  SUNNY     73  46  38 CALM      30.18S
WENATCHEE      SUNNY     83  44  25 SE7       30.04F
OMAK           SUNNY     84  47  27 S8        30.04F

...SOUTHERN BRITISH COLUMBIA...

CITY           SKY/WX    TMP DP  RH WIND       PRES   REMARKS
PENTICTON      MOSUNNY   82  52  34 S14G21    30.01F
CASTLEGAR      MOSUNNY   82  54  36 S8        30.04F
CRANBROOK      MOSUNNY   79  46  31 SE8       30.07F

...WESTERN MONTANA...

CITY           SKY/WX    TMP DP  RH WIND       PRES   REMARKS
MISSOULA       SUNNY     79  37  22 W5        30.11F

...NEIGHBORING CITIES...

CITY           SKY/WX    TMP DP  RH WIND       PRES   REMARKS
SEATTLE        SUNNY     76  56  49 NW7       30.11F
CALGARY        MOSUNNY   75  46  35 S15       30.00F



USA.gov is the U.S. government's official web portal to all federal, state and local government web resources and services.